Time,TemperatureF,DewpointF,PressureIn,WindDirection,WindDirectionDegrees,WindSpeedMPH,WindSpeedGustMPH,Humidity,HourlyPrecipIn,Conditions,Clouds,dailyrainin,SoftwareType,DateUTC
2013-07-17 00:05:00,54.7,54.7,30.01,NNE,30,0.0,0.0,100,0.00,,,0.00,Wunderground v.1.15,2013-07-17 07:05:00,
2013-07-17 00:35:00,54.7,54.7,30.01,NE,51,0.0,0.0,100,0.00,,,0.00,Wunderground v.1.15,2013-07-17 07:35:00,
2013-07-17 01:05:00,54.7,54.7,30.02,NE,51,0.0,0.0,100,0.00,,,0.00,Wunderground v.1.15,2013-07-17 08:05:00,
2013-07-17 01:35:00,55.0,55.0,30.02,NE,51,0.0,0.0,100,0.00,,,0.00,Wunderground v.1.15,2013-07-17 08:35:00,
2013-07-17 02:05:00,55.3,55.3,30.02,NE,51,0.0,0.0,100,0.00,,,0.00,Wunderground v.1.15,2013-07-17 09:05:00,
2013-07-17 02:35:00,55.3,55.3,30.03,NE,51,0.0,0.0,100,0.00,,,0.00,Wunderground v.1.15,2013-07-17 09:35:00,
2013-07-17 03:05:00,55.1,55.1,30.03,NE,51,0.0,0.0,100,0.00,,,0.00,Wunderground v.1.15,2013-07-17 10:05:00,
2013-07-17 03:35:00,55.1,55.1,30.04,NE,51,0.0,0.0,100,0.00,,,0.00,Wunderground v.1.15,2013-07-17 10:35:00,
2013-07-17 04:05:00,55.1,55.1,30.04,NE,51,0.0,0.0,100,0.00,,,0.00,Wunderground v.1.15,2013-07-17 11:05:00,
2013-07-17 04:35:00,55.3,55.3,30.04,NE,51,0.0,0.0,100,0.00,,,0.00,Wunderground v.1.15,2013-07-17 11:35:00,
2013-07-17 05:05:00,55.6,55.6,30.05,NE,51,0.0,0.0,100,0.00,,,0.00,Wunderground v.1.15,2013-07-17 12:05:00,
2013-07-17 05:35:00,55.7,55.7,30.05,NE,51,0.0,0.0,100,0.00,,,0.00,Wunderground v.1.15,2013-07-17 12:35:00,
2013-07-17 06:05:00,55.9,55.9,30.07,NE,51,0.0,0.0,100,0.00,,,0.00,Wunderground v.1.15,2013-07-17 13:05:00,
2013-07-17 06:35:00,55.9,55.9,30.07,NE,51,0.0,0.0,100,0.00,,,0.00,Wunderground v.1.15,2013-07-17 13:35:00,
2013-07-17 07:05:00,56.3,56.3,30.07,NE,51,0.0,0.0,100,0.00,,,0.00,Wunderground v.1.15,2013-07-17 14:05:00,
2013-07-17 07:35:00,56.6,56.6,30.08,NE,51,0.0,0.0,100,0.00,,,0.00,Wunderground v.1.15,2013-07-17 14:35:00,
2013-07-17 08:05:00,57.0,57.0,30.10,NE,51,0.0,0.0,100,0.00,,,0.00,Wunderground v.1.15,2013-07-17 15:05:00,
2013-07-17 08:35:00,57.5,57.5,30.10,NE,51,0.0,0.0,100,0.00,,,0.00,Wunderground v.1.15,2013-07-17 15:35:00,
2013-07-17 09:05:00,58.0,58.0,30.11,NE,51,0.0,0.0,100,0.00,,,0.00,Wunderground v.1.15,2013-07-17 16:05:00,
2013-07-17 09:35:00,58.1,58.1,30.11,NE,51,0.0,0.0,100,0.00,,,0.00,Wunderground v.1.15,2013-07-17 16:35:00,
2013-07-17 10:05:00,58.9,58.9,30.11,NE,51,0.0,0.0,100,0.00,,,0.00,Wunderground v.1.15,2013-07-17 17:05:00,
2013-07-17 10:35:00,59.2,59.2,30.11,NE,51,0.0,0.0,100,0.00,,,0.00,Wunderground v.1.15,2013-07-17 17:35:00,
2013-07-17 11:05:00,-999.9,-99.9,30.12,North,32767,-999.0,0.0,255,-99.99,,,0.00,Wunderground v.1.15,2013-07-17 18:05:00,
2013-07-17 12:35:00,-999.9,-99.9,30.13,North,32767,-999.0,0.0,255,-99.99,,,0.00,Wunderground v.1.15,2013-07-17 19:35:00,
2013-07-17 13:05:00,-999.9,-99.9,30.14,North,32767,-999.0,0.0,255,-99.99,,,0.00,Wunderground v.1.15,2013-07-17 20:05:00,
2013-07-17 13:35:00,-999.9,-99.9,30.13,North,32767,-999.0,0.0,255,-99.99,,,0.00,Wunderground v.1.15,2013-07-17 20:35:00,
2013-07-17 14:05:00,69.4,60.8,30.13,SSW,195,0.0,0.0,74,0.00,,,0.00,Wunderground v.1.15,2013-07-17 21:05:00,
2013-07-17 14:35:00,69.6,58.2,30.13,SSW,195,0.0,0.0,67,0.00,,,0.00,Wunderground v.1.15,2013-07-17 21:35:00,
2013-07-17 15:05:00,69.9,58.9,30.13,East,99,0.0,0.0,68,0.00,,,0.00,Wunderground v.1.15,2013-07-17 22:05:00,
2013-07-17 15:35:00,69.8,57.9,30.13,SSE,147,0.0,0.0,66,0.00,,,0.00,Wunderground v.1.15,2013-07-17 22:35:00,
2013-07-17 16:05:00,67.8,57.7,30.13,SW,236,0.0,0.0,70,0.00,,,0.00,Wunderground v.1.15,2013-07-17 23:05:00,
2013-07-17 16:35:00,66.9,57.2,30.13,SW,236,0.0,0.0,71,0.00,,,0.00,Wunderground v.1.15,2013-07-17 23:35:00,
2013-07-17 17:05:00,67.8,57.3,30.13,South,185,0.0,0.0,69,0.00,,,0.00,Wunderground v.1.15,2013-07-18 00:05:00,
2013-07-17 17:35:00,67.3,57.2,30.12,ESE,121,0.0,0.0,70,0.00,,,0.00,Wunderground v.1.15,2013-07-18 00:35:00,
2013-07-17 18:05:00,66.0,56.3,30.12,SE,130,0.0,0.0,71,0.00,,,0.00,Wunderground v.1.15,2013-07-18 01:05:00,
2013-07-17 18:35:00,65.2,56.7,30.11,SE,130,0.0,0.0,74,0.00,,,0.00,Wunderground v.1.15,2013-07-18 01:35:00,
2013-07-17 19:05:00,63.5,55.4,30.11,South,176,0.0,0.0,75,0.00,,,0.00,Wunderground v.1.15,2013-07-18 02:05:00,
2013-07-17 19:35:00,61.6,55.0,30.11,SSW,212,0.0,0.0,79,0.00,,,0.00,Wunderground v.1.15,2013-07-18 02:35:00,
2013-07-17 20:05:00,59.9,56.3,30.11,SSW,212,0.0,0.0,88,0.00,,,0.00,Wunderground v.1.15,2013-07-18 03:05:00,
2013-07-17 20:35:00,58.3,56.0,30.12,SSW,212,0.0,0.0,92,0.00,,,0.00,Wunderground v.1.15,2013-07-18 03:35:00,
2013-07-17 21:05:00,56.6,54.9,30.11,SSW,212,0.0,0.0,94,0.00,,,0.00,Wunderground v.1.15,2013-07-18 04:05:00,
2013-07-17 21:35:00,55.6,54.2,30.11,SSW,212,0.0,0.0,95,0.00,,,0.00,Wunderground v.1.15,2013-07-18 04:35:00,
2013-07-17 22:05:00,54.7,53.6,30.13,SSW,212,0.0,0.0,96,0.00,,,0.00,Wunderground v.1.15,2013-07-18 05:05:00,
2013-07-17 22:35:00,53.6,52.8,30.13,SSW,212,0.0,0.0,97,0.00,,,0.00,Wunderground v.1.15,2013-07-18 05:35:00,
2013-07-17 23:05:00,52.9,52.6,30.13,SSW,212,0.0,0.0,99,0.00,,,0.00,Wunderground v.1.15,2013-07-18 06:05:00,